Theta_e
313 310 310 310 310 311 313 314 313 312 312 313 312 311 311 314 314 311 311 307 307 306 305 306 307 307 307 308 308 309 310 311 311 311 312 314 319 322 323 324 323 323 323 322
311 312 311 311 313 313 313 313 312 312 313 313 311 311 310 311 311 312 308 307 306 305 306 305 306 306 306 306 307 307 308 308 309 309 311 313 314 317 319 320 321 320 320 319
312 313 313 313 314 313 313 313 312 313 312 310 311 311 311 312 308 307 307 306 306 304 303 303 304 304 304 305 305 305 306 306 306 307 309 311 313 314 316 317 318 317 317 316
312 313 313 313 314 313 314 312 313 313 311 310 311 312 313 312 308 306 305 305 304 303 303 303 303 303 303 304 305 305 305 305 305 306 306 307 308 309 309 308 308 309 311 314
315 312 312 313 313 311 312 310 311 311 310 310 310 311 311 309 309 307 304 303 302 302 302 302 302 302 302 303 304 304 305 306 305 304 304 304 304 305 305 306 306 305 305 305
311 310 311 311 311 311 309 310 310 309 308 312 312 313 313 311 309 306 304 303 302 301 302 302 302 302 303 303 304 304 304 304 304 304 304 304 303 303 302 303 303 302 302 302
312 311 310 310 311 309 309 310 313 312 310 313 312 312 313 311 308 306 303 301 301 301 301 301 301 301 301 301 301 302 302 302 302 302 302 301 301 302 302 302 301 301 300 300
314 315 310 309 311 311 310 312 311 310 312 310 311 313 312 305 304 303 302 302 302 301 300 300 300 300 300 300 299 297 297 298 298 298 299 298 298 297 296 296 296 297 299 299
313 312 309 310 310 311 312 313 311 312 301 307 311 312 308 305 303 302 301 302 301 300 300 300 299 299 299 299 297 295 293 292 292 292 292 292 292 293 292 291 292 292 292 293
314 314 313 309 310 309 311 309 312 310 309 309 312 311 310 307 304 301 300 300 300 299 299 299 300 299 296 293 292 291 290 289 290 290 290 290 289 289 289 290 290 290 289 288
313 314 312 311 312 312 309 310 310 311 311 310 309 309 309 308 303 300 299 300 301 301 300 298 297 296 293 290 289 289 289 288 288 288 288 288 288 288 287 287 288 288 288 288
311 312 308 311 308 307 308 309 310 310 309 308 311 312 307 303 301 302 301 302 303 302 299 296 295 293 291 290 289 288 288 288 288 288 288 288 287 287 287 287 287 287 287 287
311 308 302 304 305 310 311 310 308 308 310 311 312 309 304 302 302 302 303 304 301 298 297 293 292 291 291 290 289 289 288 288 288 288 288 287 287 287 287 287 287 287 286 286
309 308 303 304 302 306 306 305 304 307 305 301 303 303 304 303 302 304 304 303 303 299 296 293 292 291 291 290 289 289 289 289 288 288 288 288 288 287 287 287 287 286 286 286
306 304 306 306 305 304 304 303 303 303 303 303 303 302 302 301 299 299 298 298 300 297 295 294 293 292 291 291 290 290 289 289 288 288 288 288 287 287 287 286 286 286 285 285
304 299 300 296 301 301 301 301 300 300 300 300 300 300 299 297 296 296 295 294 294 292 292 291 292 291 291 290 289 289 289 289 289 288 288 287 287 287 286 286 285 285 285 284
300 297 291 293 298 295 293 297 297 298 297 296 296 296 292 294 294 292 292 293 292 292 292 291 291 290 290 290 289 289 289 289 289 288 287 286 285 285 284 284 284 283 283 283
297 292 289 287 286 292 294 294 295 295 295 292 292 289 291 292 291 291 291 291 291 291 291 291 290 289 289 289 289 289 289 289 287 287 286 284 283 282 281 281 281 281 280 280
297 296 289 290 286 290 294 293 294 294 292 290 290 291 293 290 290 290 291 291 290 290 290 290 289 289 289 289 289 289 288 287 286 284 283 283 282 281 280 279 279 279 278 279
294 296 294 279 289 288 291 292 294 292 291 290 292 289 290 290 287 286 291 290 290 290 290 290 289 289 289 289 289 288 286 285 284 283 282 281 280 279 279 278 277 277 275 275
284 282 295 294 292 288 289 291 293 288 290 293 293 292 290 289 290 291 291 290 290 290 290 289 289 289 289 288 287 286 285 283 282 282 281 280 279 278 277 277 275 274 272 271
289 287 284 281 282 291 292 291 290 291 293 293 292 291 291 291 291 291 291 290 290 290 289 289 289 288 288 287 286 284 283 282 282 281 280 279 278 277 276 274 273 271 269 269
290 289 286 289 288 291 291 292 293 292 293 292 292 292 291 291 291 291 290 290 290 289 289 289 288 288 287 286 284 283 282 281 280 279 279 278 277 275 274 272 271 269 268 267
289 290 290 288 289 290 292 292 292 292 292 292 291 291 291 291 290 290 290 289 289 289 289 288 288 287 286 284 282 282 281 280 279 279 279 277 276 274 273 271 269 268 268 266
291 289 289 289 291 291 291 292 292 292 292 292 292 291 291 291 290 290 290 289 289 289 288 287 286 285 284 282 281 280 280 279 279 278 277 276 274 273 271 269 269 267 268 265
292 292 292 292 292 291 292 292 292 292 292 292 291 291 291 290 290 290 289 289 288 287 287 286 284 284 282 281 281 279 278 278 278 276 276 274 273 272 270 268 268 270 268 266
Wind_Speed
5 4 6 11 10 6 3 3 4 5 9 4 9 6 10 21 28 20 7 20 19 19 15 16 17 17 17 15 11 5 5 6 8 10 11 13 15 16 17 18 19 23 24 25
4 6 13 6 5 6 4 4 6 5 5 2 7 9 13 17 4 4 23 22 18 17 18 20 20 21 24 23 22 17 10 4 2 4 4 4 7 13 14 15 18 18 19 23
8 8 8 7 5 4 3 4 5 8 3 4 4 6 8 3 21 23 22 21 19 20 21 21 22 23 23 24 24 21 18 13 9 4 2 6 8 6 7 9 13 13 16 19
6 6 7 7 6 6 5 3 4 3 2 3 3 5 4 2 7 9 15 20 20 20 20 20 21 23 25 25 23 22 19 17 14 11 7 5 3 2 4 5 8 13 16 18
6 6 3 3 5 7 7 2 2 3 4 2 5 0 7 9 5 4 12 20 20 18 19 20 21 21 21 21 23 22 21 20 20 17 13 9 5 2 4 7 9 11 12 13
5 1 3 6 2 2 3 2 4 2 3 1 5 5 5 4 8 6 13 20 19 16 16 17 17 16 17 17 17 17 18 18 17 16 16 15 12 8 5 5 8 9 9 8
2 5 2 3 2 4 4 4 3 4 1 5 2 2 7 5 5 14 16 21 17 14 14 14 14 15 15 15 16 15 14 14 14 13 12 12 12 12 11 11 10 9 10 11
4 4 7 3 5 5 5 5 4 5 3 4 7 5 4 9 25 28 27 20 14 11 11 12 12 13 14 14 14 13 13 12 12 13 14 13 12 13 14 13 14 13 13 13
5 5 2 2 3 7 4 4 3 2 1 3 4 5 8 9 12 18 20 18 14 10 6 7 9 10 10 10 9 10 9 10 11 11 12 13 13 13 15 15 15 17 17 15
2 3 3 1 4 2 2 1 2 2 1 4 5 4 4 5 10 8 9 13 11 7 3 2 5 8 8 7 6 7 8 10 11 10 10 11 14 14 15 15 16 17 19 20
3 4 4 3 4 5 1 1 2 2 4 4 2 5 4 6 11 10 13 14 12 8 6 5 4 3 2 2 6 8 8 10 12 14 15 14 14 15 16 17 17 16 18 22
2 4 4 8 5 3 6 6 5 3 5 3 3 11 3 8 15 17 17 15 11 10 8 7 7 4 2 1 3 6 11 14 15 17 18 19 19 19 19 21 22 22 22 21
5 1 2 8 4 2 1 1 4 3 2 6 5 5 2 7 10 13 15 16 13 13 9 7 7 6 4 1 3 6 11 15 18 19 21 23 24 26 26 27 28 28 30 29
6 3 6 8 4 2 3 7 1 4 2 3 8 7 16 13 6 12 18 17 13 15 10 8 8 8 6 6 7 7 9 16 17 19 21 23 25 28 30 32 34 36 37 38
6 6 4 6 2 3 4 10 11 6 10 8 20 17 19 17 9 7 4 4 11 13 13 14 13 15 11 11 13 14 16 20 22 24 25 26 29 32 34 36 37 37 37 38
1 2 2 4 2 4 8 18 12 14 16 15 19 22 18 5 3 6 8 8 8 8 5 6 11 15 15 14 14 15 17 19 23 26 27 29 33 35 36 37 39 42 45 47
5 5 3 6 2 4 7 15 16 12 11 7 9 10 1 4 5 7 6 5 6 8 7 6 7 9 11 11 13 17 19 21 23 26 28 32 34 36 37 40 43 46 48 51
5 6 3 4 4 2 9 4 5 8 7 4 2 5 10 8 7 6 6 9 11 9 10 12 13 13 14 16 17 20 21 24 26 29 32 34 35 37 40 44 48 51 52 54
9 5 1 4 5 6 13 6 5 5 7 6 5 4 9 8 3 5 5 3 3 9 14 14 11 13 15 18 21 21 22 25 29 31 33 35 39 44 47 49 50 50 51 53
6 5 6 2 5 9 7 4 10 7 8 10 12 9 10 6 1 5 6 13 19 20 21 18 15 19 21 22 22 24 26 29 31 33 36 41 44 46 47 47 48 48 49 52
4 1 15 14 6 7 7 8 8 5 8 6 9 15 13 5 13 16 16 20 20 21 18 18 20 21 21 21 24 26 27 29 33 38 42 44 44 45 45 47 47 48 48 48
7 7 5 2 1 9 12 4 7 9 10 11 13 13 15 20 23 22 25 21 19 21 21 21 21 21 22 23 24 26 27 31 37 41 42 43 42 43 44 44 46 45 42 42
1 7 5 10 7 6 20 11 17 19 17 15 15 20 24 24 23 21 22 22 24 22 24 24 23 24 24 24 25 26 29 36 39 40 42 41 42 42 41 42 44 41 38 39
5 3 5 3 5 12 23 29 28 25 24 28 30 28 25 22 25 22 23 25 25 25 24 25 26 25 23 23 23 27 32 36 37 39 39 40 41 41 41 39 35 34 35 37
10 6 6 8 12 21 28 33 34 35 34 33 33 30 29 26 25 24 26 27 27 28 27 26 25 23 23 22 24 28 31 34 36 36 36 38 39 39 39 34 32 33 33 33
19 18 11 13 22 19 25 33 29 27 27 27 24 26 22 23 26 25 26 26 27 27 26 26 24 24 23 23 26 28 30 32 33 33 34 36 37 37 36 35 36 31 31 31
Wind_Direction
186 108 204 219 201 208 269 246 263 274 278 303 281 284 271 280 287 313 61 110 93 79 70 68 66 65 66 67 67 82 219 218 214 224 236 247 250 249 249 243 244 246 249 253
70 214 228 223 237 229 236 256 279 287 286 358 288 285 285 278 339 124 126 112 104 95 77 70 68 64 62 63 64 69 77 109 204 229 218 235 245 246 252 251 248 249 254 256
176 218 191 182 251 257 251 232 250 234 309 296 302 289 266 330 96 92 102 106 98 87 78 70 66 63 61 59 59 58 59 60 63 69 225 231 225 216 234 230 240 248 255 260
230 261 256 276 243 162 262 189 236 243 66 224 56 281 292 212 98 81 96 95 90 86 83 74 65 59 57 55 56 56 56 56 55 49 47 39 42 188 230 259 260 258 257 256
235 171 167 164 211 154 227 101 215 221 220 28 266 7 260 110 108 124 107 98 91 83 78 71 66 63 60 56 51 48 47 50 50 46 46 41 45 46 255 259 273 275 273 266
238 120 186 208 224 156 127 39 315 39 110 330 261 178 276 192 172 154 124 107 102 95 87 80 69 61 54 47 42 38 35 38 41 40 42 40 41 37 11 319 301 301 293 281
192 211 189 172 90 22 73 74 320 343 12 219 235 1 246 358 134 122 111 105 101 95 87 74 59 46 39 35 31 25 22 22 22 21 26 34 34 30 27 19 6 339 316 303
191 308 158 178 166 185 184 166 155 236 229 250 8 263 306 77 91 103 112 113 106 91 75 61 44 32 25 20 24 25 25 26 24 19 15 15 17 22 24 23 15 4 359 350
180 234 170 150 151 142 177 163 170 177 82 36 215 281 107 101 90 103 113 115 113 109 89 44 35 18 3 1 14 25 27 32 38 38 36 27 19 16 19 17 12 7 358 353
164 294 300 316 56 356 149 201 44 26 226 252 278 241 222 144 129 122 126 131 136 140 131 22 348 344 344 349 13 40 32 27 25 19 17 11 6 4 358 351 350 351 347 344
117 133 268 109 186 167 98 246 199 189 177 201 231 259 160 149 154 155 165 173 181 197 215 216 254 293 315 350 28 32 28 23 18 9 5 2 356 351 346 339 336 332 330 330
147 158 218 229 267 199 187 224 187 164 264 256 242 258 158 139 158 175 196 196 213 231 221 216 211 208 227 54 35 20 9 5 0 360 349 347 344 341 338 333 333 331 327 324
171 189 3 330 26 25 131 86 88 56 94 228 231 259 146 163 187 214 205 222 219 212 214 208 196 210 212 265 359 3 2 356 349 349 340 339 338 335 332 329 327 326 323 322
115 169 172 220 165 108 285 294 266 169 185 232 244 277 280 275 235 256 257 249 239 223 221 216 225 230 245 278 292 303 324 330 327 327 326 328 327 325 321 320 321 319 320 320
143 204 203 254 299 126 224 260 281 212 241 232 268 270 271 288 298 263 216 182 194 204 214 231 233 232 244 278 291 296 306 316 316 318 317 319 320 319 317 316 315 314 313 313
135 231 107 306 220 273 269 264 260 253 256 252 257 265 271 254 205 164 165 171 171 173 201 252 234 240 267 276 274 276 284 291 302 310 309 312 314 313 313 312 312 312 313 311
148 134 89 264 190 52 309 252 246 238 233 229 242 252 231 237 198 176 192 230 256 263 247 240 249 274 265 275 282 287 288 291 297 302 301 306 310 311 312 311 309 306 304 302
143 120 124 218 48 233 244 275 209 206 234 196 176 227 220 213 179 192 248 271 274 258 244 257 271 270 269 281 289 289 287 292 298 302 307 310 310 309 308 306 305 304 303 301
188 157 149 177 203 300 295 254 203 191 275 170 203 224 204 184 209 256 278 202 272 278 288 283 271 271 278 283 288 284 292 299 304 307 309 310 309 308 308 306 306 305 303 301
177 180 177 126 194 207 235 177 141 116 270 221 229 232 168 149 165 247 284 295 289 280 285 286 274 277 277 282 288 294 300 305 308 310 312 312 311 311 311 310 309 307 304 301
114 54 213 223 231 275 241 195 146 105 263 163 209 191 180 186 236 275 292 303 290 281 272 264 267 267 271 282 292 297 303 308 312 314 314 314 315 315 314 313 313 312 309 306
157 171 201 102 131 264 191 130 160 225 189 209 201 219 233 273 279 275 288 291 282 271 263 261 259 267 278 289 296 303 307 313 314 313 315 316 318 318 318 317 317 316 313 310
247 201 181 185 202 214 191 210 252 253 226 214 233 263 278 276 272 280 288 284 282 264 253 256 266 275 284 293 300 303 312 314 314 316 317 319 320 322 323 324 322 316 315 313
269 166 224 82 211 233 256 259 263 261 248 265 277 280 280 261 279 274 283 284 275 268 256 265 271 277 284 291 297 306 314 313 315 317 319 323 324 326 330 325 320 319 318 315
227 171 230 258 260 266 264 262 266 270 271 272 277 277 276 276 271 272 280 277 269 262 263 269 276 279 285 291 300 311 312 313 315 318 323 326 329 332 326 328 332 324 320 311
236 240 240 252 250 244 262 271 270 273 274 270 270 275 265 266 272 281 283 268 256 256 263 271 275 282 287 293 304 312 312 313 316 320 327 329 334 330 331 336 334 335 326 311